User: anonymous   Login
Location: New Brunswick
(40.4860°N, 74.4520°W)
Time: 04:34:47
(UTC-05:00)
Language:

OV2-1/LCS2 D - Orbit

View from above orbital plane
View from above orbital plane
View from above satellite
View from above satellite

Ground track
Ground track

The orbit data is extracted from the following two-line orbital elements,

1 01642U 65082D   22343.48956749  .00000908  00000-0  11182-3 0  9993
2 01642  32.0935 116.3717 0025392 227.1614 132.6901 14.79758714 46686
Epoch (UTC): 09 December 2022 11:44:58
Eccentricity: 0.0025392
inclination: 32.0935°
perigee height: 612 km
apogee height: 648 km
right ascension of ascending node: 116.3717°
argument of perigee: 227.1614°
revolutions per day: 14.79758714
mean anomaly at epoch: 132.6901°
orbit number at epoch: 4668

The dashed part of the orbit path shows where the satellite is in the earth's shadow,  

DLR